Total_Precipitation_Accumulation
1.46 1.47 1.39 1.60 1.71 1.76 1.84 1.86 1.80 1.69 1.65 1.47 1.46 1.49 1.54 1.40 1.54 1.71 2.20 2.67 3.25 4.05 4.23 3.86 3.56 3.45 3.16 2.97 3.14 3.13 3.18 3.23 3.26 3.23 3.24 3.63 3.80 3.38 3.30 3.31 3.36 3.80 4.22
1.29 1.50 1.40 1.41 1.54 1.75 1.88 1.89 1.83 1.89 1.85 1.63 1.61 1.66 1.63 1.58 1.60 1.68 1.92 2.00 2.22 2.87 3.58 4.00 4.10 3.91 3.52 3.28 3.20 3.21 3.36 3.32 3.21 3.11 3.09 3.33 3.57 3.28 3.23 3.36 3.37 3.70 4.05
1.21 1.46 1.40 1.31 1.33 1.49 1.69 1.94 2.01 2.02 1.80 1.71 1.74 1.73 1.62 1.60 1.61 1.80 1.88 1.96 1.90 2.05 2.58 3.10 3.65 3.83 3.88 3.72 3.40 3.23 3.41 3.41 3.28 3.12 3.06 3.09 3.36 3.34 3.33 3.40 3.35 3.53 3.72
1.00 1.27 1.37 1.28 1.27 1.46 1.73 2.01 2.22 2.26 2.06 2.02 2.06 1.96 1.73 1.68 1.62 1.75 1.83 1.95 2.07 1.87 1.92 2.11 2.53 3.12 3.62 3.67 3.64 3.51 3.54 3.47 3.23 3.10 2.91 2.83 3.07 3.23 3.35 3.35 3.26 3.39 3.52
0.94 1.20 1.44 1.47 1.46 1.64 1.78 1.80 2.07 2.23 2.33 2.24 2.06 1.93 1.87 1.85 1.81 1.76 1.90 1.91 1.99 1.95 1.81 1.57 1.66 2.12 2.76 3.22 3.46 3.54 3.76 3.66 3.30 3.14 2.80 2.62 2.77 3.05 3.39 3.11 3.04 3.11 3.35
1.14 1.37 1.63 1.66 1.74 1.84 1.95 2.18 2.46 2.48 2.40 2.43 2.14 1.88 1.77 1.80 1.88 1.98 1.97 1.97 2.04 1.88 1.72 1.56 1.51 1.50 2.04 2.62 3.00 3.33 3.55 3.63 3.43 3.36 3.01 2.61 2.58 2.84 3.25 3.07 2.97 3.04 3.26
1.32 1.56 1.75 1.99 2.13 2.03 2.06 2.34 2.65 2.75 2.54 2.39 2.48 2.32 2.12 1.93 1.93 1.90 1.90 1.97 2.02 1.98 1.88 1.82 1.74 1.63 1.76 2.02 2.31 2.81 3.21 3.44 3.50 3.53 3.33 2.94 2.73 2.76 2.93 2.81 2.73 3.00 3.33
1.42 1.45 1.72 1.92 2.01 2.15 2.19 2.29 2.62 2.96 2.72 2.43 2.69 3.14 2.90 2.66 2.13 1.78 1.91 1.96 2.06 2.08 2.02 1.88 1.89 1.80 1.81 2.01 1.77 1.92 2.46 2.99 3.44 3.57 3.44 3.20 2.99 2.75 2.82 2.74 2.61 2.73 2.99
1.78 1.74 1.78 1.90 1.99 2.20 2.37 2.39 2.47 2.85 2.90 2.62 2.58 3.22 3.26 3.09 2.82 2.25 1.89 1.94 2.12 2.22 2.24 2.15 2.02 1.96 1.85 1.99 1.82 1.53 1.76 2.11 2.77 3.30 3.55 3.41 3.16 2.86 2.79 2.77 2.73 2.78 2.81
2.10 2.11 2.11 2.21 2.15 2.15 2.26 2.24 2.24 2.51 2.87 2.90 2.67 2.50 2.48 2.64 3.04 2.79 2.20 2.02 2.06 2.10 2.26 2.14 2.15 2.17 2.10 2.04 1.92 1.57 1.36 1.52 2.15 2.98 3.54 3.47 3.26 3.07 2.92 2.88 2.74 2.70 2.70
2.74 2.70 2.61 2.44 2.24 2.19 2.26 2.30 2.31 2.43 2.57 2.74 2.69 2.50 2.43 2.39 2.31 2.58 2.57 2.31 2.09 2.00 2.12 2.17 2.20 2.21 2.22 2.17 2.07 1.70 1.32 1.18 1.49 2.29 3.04 3.29 3.29 3.19 3.10 3.01 2.83 2.63 2.46
2.74 2.69 2.50 2.21 2.04 2.01 2.10 2.27 2.29 2.37 2.39 2.47 2.42 2.26 2.25 2.27 2.27 2.46 2.43 2.39 2.35 2.01 1.87 1.94 2.01 2.08 2.00 2.00 1.87 1.92 1.53 1.20 1.16 1.57 2.18 2.70 3.06 3.28 3.24 3.28 3.06 2.77 2.53
2.10 2.12 2.11 2.07 1.97 1.87 1.95 2.18 2.27 2.33 2.33 2.32 2.24 2.13 2.14 2.02 2.10 2.41 2.58 2.45 2.31 1.98 1.78 1.71 1.79 1.83 1.70 1.79 1.89 2.05 1.73 1.44 1.25 1.31 1.63 1.97 2.28 2.67 3.12 3.40 3.49 3.32 3.16
1.83 1.87 1.92 1.96 1.91 1.85 1.86 1.99 2.12 2.22 2.22 2.17 2.10 2.21 2.21 1.99 2.05 2.14 2.31 2.54 2.40 2.12 1.89 1.66 1.60 1.53 1.57 1.63 1.86 2.08 1.56 1.47 1.32 1.23 1.26 1.46 1.74 1.99 2.34 2.86 3.26 3.37 3.39
1.44 1.55 1.67 1.77 1.73 1.71 1.72 1.87 2.01 2.03 2.11 2.20 2.21 2.22 2.22 2.14 2.13 2.15 2.33 2.51 2.55 2.30 2.06 1.82 1.65 1.49 1.54 1.61 1.88 1.74 1.45 1.46 1.36 1.27 1.23 1.23 1.38 1.63 1.85 2.01 2.24 2.38 2.54
1.34 1.36 1.32 1.35 1.35 1.40 1.43 1.53 1.70 1.78 1.80 1.89 1.94 2.00 2.01 1.99 2.09 2.10 2.21 2.38 2.42 2.36 2.19 1.90 1.70 1.62 1.68 1.60 1.76 1.60 1.55 1.69 1.50 1.32 1.23 1.20 1.24 1.36 1.45 1.53 1.62 1.67 1.70
1.06 1.07 0.99 1.01 1.11 1.13 1.09 1.19 1.30 1.37 1.47 1.57 1.58 1.63 1.69 1.68 1.86 1.91 2.02 2.18 2.28 2.27 2.05 1.82 1.68 1.69 1.75 1.77 1.71 1.59 1.54 1.57 1.53 1.39 1.23 1.15 1.19 1.25 1.30 1.41 1.47 1.47 1.48
0.81 0.81 0.78 0.77 0.87 0.99 1.01 1.10 1.18 1.17 1.26 1.39 1.47 1.49 1.46 1.46 1.59 1.67 1.78 1.88 2.05 2.15 2.07 1.91 1.76 1.65 1.56 1.63 1.77 1.78 1.73 1.66 1.66 1.68 1.53 1.39 1.34 1.27 1.22 1.34 1.46 1.43 1.41
0.78 0.76 0.71 0.74 0.79 0.85 1.00 1.07 1.08 1.08 1.08 1.10 1.18 1.20 1.22 1.32 1.46 1.50 1.54 1.67 1.85 1.95 2.07 1.98 1.86 1.75 1.58 1.54 1.72 1.69 1.72 1.95 1.84 1.87 1.97 1.80 1.59 1.40 1.26 1.30 1.43 1.42 1.38
0.80 0.79 0.72 0.71 0.80 0.89 0.97 1.07 1.09 1.03 1.00 1.02 1.06 1.04 0.99 1.04 1.18 1.33 1.41 1.60 1.80 1.99 2.10 2.07 2.02 1.92 1.79 1.67 1.73 1.86 1.90 1.98 2.00 1.78 1.82 1.84 1.84 1.69 1.46 1.34 1.40 1.48 1.53
0.78 0.77 0.75 0.78 0.84 0.85 0.88 1.04 1.05 1.01 1.02 0.98 0.99 1.02 0.99 0.99 1.01 1.09 1.09 1.29 1.53 1.82 2.00 2.09 2.08 2.06 1.95 1.85 1.73 1.89 1.96 2.07 2.16 2.11 2.01 1.85 1.84 1.67 1.54 1.46 1.44 1.50 1.62
0.82 0.80 0.78 0.81 0.79 0.73 0.96 1.05 1.01 1.01 1.06 1.10 1.04 1.01 0.97 0.95 1.04 1.03 1.01 1.06 1.24 1.46 1.67 1.78 1.83 1.85 1.88 1.95 2.03 2.03 1.99 2.02 2.09 2.09 1.98 2.03 2.02 1.92 1.67 1.46 1.50 1.56 1.64
0.76 0.76 0.76 0.76 0.72 0.72 0.79 0.80 0.87 0.94 1.06 1.10 1.04 1.09 1.10 0.99 1.03 1.06 1.13 1.07 1.02 1.10 1.32 1.53 1.60 1.61 1.70 1.76 2.01 2.03 2.02 2.02 1.90 1.93 1.84 1.95 1.90 1.83 1.72 1.66 1.68 1.59 1.64
0.71 0.73 0.81 0.79 0.69 0.63 0.68 0.66 0.74 0.84 0.96 0.99 0.99 1.04 1.24 1.25 1.14 1.14 1.21 1.26 1.13 0.98 1.04 1.14 1.32 1.48 1.54 1.72 2.04 2.25 2.20 1.96 1.85 1.85 1.78 1.85 1.78 1.69 1.63 1.59 1.68 1.61 1.60
0.62 0.64 0.68 0.74 0.68 0.64 0.66 0.65 0.69 0.75 0.85 0.85 0.87 1.00 1.12 1.21 1.20 1.22 1.16 1.20 1.22 1.09 1.07 1.16 1.17 1.27 1.46 1.63 1.91 2.21 2.28 2.17 1.96 1.85 1.71 1.67 1.69 1.71 1.73 1.64 1.61 1.67 1.65
0.60 0.62 0.63 0.60 0.58 0.58 0.63 0.65 0.71 0.71 0.75 0.71 0.76 0.94 1.16 1.12 1.12 1.19 1.17 1.24 1.33 1.16 1.08 1.19 1.18 1.21 1.26 1.51 1.91 2.10 2.23 2.20 2.05 1.99 1.80 1.72 1.71 1.77 2.00 1.91 1.69 1.62 1.63